Marshall, MI

5:47 AM EST on February 09, 2016 (GMT -0500)
Brooks

Weather History for KRMY - January, 2014

Change the Weather History Date:

Monday, January 6, 2014

  Actual Average (KBTL) Record (KBTL)
Temperature  
Mean Temperature 0 °F 24 °F  
Max Temperature 15 °F 32 °F 55 °F (2008)
Min Temperature -16 °F 16 °F -12 °F (2014)
Degree Days  
Heating Degree Days 66 41  
Month to date heating degree days 246  
Since 1 July heating degree days 2846  
Cooling Degree Days 0 0  
Month to date cooling degree days 0  
Year to date cooling degree days 0  
Moisture  
Dew Point -7 °F    
Average Humidity 76    
Maximum Humidity 86    
Minimum Humidity 67    
Precipitation  
Precipitation 0.00 in 0.06 in 0.18 in (2005)
Month to date precipitation 0.40  
Year to date precipitation 0.40  
Sea Level Pressure  
Sea Level Pressure 29.91 in    
Wind  
Wind Speed 13 mph (WSW)    
Max Wind Speed 21 mph    
Max Gust Speed 30 mph    
Visibility 4 miles    
Events Snow    
T = Trace of Precipitation, MM = Missing Value Source: NWS Daily Summary

Daily Weather History Graph

Daily Weather History Graph

Search for Another Location

Airport or City:

Trip Planner

Search our weather history database for the weather conditions in past years. The results will help you decide how hot, cold, wet, or windy it might be!

Date:

Astronomy

Jan. 06, 2014 Rise Set
Actual Time 8:08 AM EST 5:23 PM EST
Civil Twilight 7:37 AM EST 5:54 PM EST
Nautical Twilight 7:02 AM EST 6:29 PM EST
Astronomical Twilight 6:28 AM EST 7:03 PM EST
Moon 11:16 AM EST (1/6) No Moon Set
Length of Visible Light 10h 17m
Length of Day
9h 14m
Waxing Crescent, 34% of the Moon is Illuminated
Jan 6
Waxing Crescent
Jan 7
First Quarter
Jan 15
Full
Jan 24
Last Quarter
Jan 30
New

Hourly Weather History & Observations

Time (EST) Temp. Windchill Dew Point Humidity Pressure Visibility Wind Dir Wind Speed Gust Speed Precip Events Conditions
12:14 AM 15.6 °F 1.2 °F 11.3 °F 83% 29.70 in 4.0 mi WNW 13.8 mph 21.9 mph N/A Snow Light Snow
12:34 AM 15.3 °F 3.5 °F 11.3 °F 84% 29.70 in 3.0 mi WNW 9.2 mph 18.4 mph N/A Snow Light Snow
12:53 AM 14.9 °F 4.0 °F 11.3 °F 86% 29.70 in 3.0 mi NW 8.1 mph - N/A Snow Light Snow
1:14 AM 14.7 °F 2.1 °F 10.9 °F 85% 29.71 in 5.0 mi WNW 10.4 mph - N/A Snow Light Snow
1:34 AM 14.2 °F 1.4 °F 10.0 °F 84% 29.71 in 10.0 mi WNW 10.4 mph 18.4 mph N/A Snow Light Snow
1:53 AM 14.0 °F -0.2 °F 9.9 °F 84% 29.72 in 10.0 mi WNW 12.7 mph 18.4 mph N/A Snow Light Snow
2:14 AM 13.5 °F 2.2 °F 9.5 °F 84% 29.73 in 7.0 mi WNW 8.1 mph 17.3 mph N/A Snow Light Snow
2:34 AM 13.5 °F 2.2 °F 9.5 °F 84% 29.73 in 10.0 mi WNW 8.1 mph - N/A Snow Light Snow
2:53 AM 13.1 °F 0.9 °F 8.8 °F 83% 29.74 in 10.0 mi WNW 9.2 mph - N/A   Overcast
3:14 AM 11.7 °F -0.9 °F 7.5 °F 83% 29.75 in 10.0 mi West 9.2 mph - N/A   Mostly Cloudy
3:34 AM 10.6 °F -1.3 °F 6.6 °F 84% 29.76 in 10.0 mi West 8.1 mph - N/A   Scattered Clouds
3:53 AM 10.6 °F -2.2 °F 6.6 °F 84% 29.76 in 10.0 mi West 9.2 mph - N/A   Mostly Cloudy
4:14 AM 11.3 °F -2.2 °F 7.2 °F 83% 29.77 in 10.0 mi West 10.4 mph - N/A   Overcast
4:33 AM 12.2 °F -1.0 °F 7.5 °F 82% 29.77 in 10.0 mi WNW 10.4 mph - N/A   Overcast
4:53 AM 12.7 °F 1.4 °F 7.7 °F 80% 29.77 in 7.0 mi WNW 8.1 mph - N/A Snow Light Snow
5:14 AM 12.6 °F -4.9 °F 8.4 °F 83% 29.77 in 2.0 mi West 18.4 mph 23.0 mph N/A Snow Light Snow
5:33 AM 11.5 °F -7.2 °F 6.3 °F 80% 29.78 in 4.0 mi West 20.7 mph 29.9 mph N/A Snow Light Snow
5:54 AM 10.4 °F -6.6 °F 4.8 °F 78% 29.79 in 5.0 mi West 16.1 mph 27.6 mph N/A Snow Light Snow
6:14 AM 8.8 °F -9.3 °F 4.1 °F 81% 29.80 in 4.0 mi West 17.3 mph 28.8 mph N/A Snow Light Snow
6:33 AM 7.5 °F -11.9 °F 2.8 °F 81% 29.81 in 3.0 mi West 19.6 mph 25.3 mph N/A Snow Light Snow
6:54 AM 6.4 °F -11.7 °F 1.4 °F 80% 29.82 in 4.0 mi West 16.1 mph 21.9 mph N/A Snow Light Snow
7:14 AM 5.5 °F -14.0 °F 0.5 °F 80% 29.84 in 4.0 mi WSW 18.4 mph - N/A Snow Light Snow
7:33 AM 5.0 °F - -0.2 °F 79% 29.84 in 4.0 mi North - - N/A Snow Light Snow
7:54 AM 4.3 °F - -0.2 °F 82% 29.85 in 1.8 mi North - - N/A Snow Light Snow
8:13 AM 3.2 °F - -1.5 °F 81% 29.86 in 1.2 mi North - - N/A Snow Light Snow
8:33 AM 2.3 °F - -2.7 °F 79% 29.87 in 1.0 mi North - - N/A Snow Light Snow
8:54 AM 1.4 °F - -4.0 °F 78% 29.88 in 1.2 mi North - - N/A   Haze
9:13 AM 0.3 °F - -5.1 °F 78% 29.89 in 1.0 mi North - - N/A Snow Light Snow
9:33 AM -0.4 °F - -6.0 °F 77% 29.90 in 1.2 mi North - - N/A   Haze
9:54 AM -0.4 °F - -6.7 °F 75% 29.91 in 1.5 mi North - - N/A   Haze
10:13 AM -0.4 °F - -7.1 °F 73% 29.91 in 2.0 mi North - - N/A   Haze
10:33 AM -0.4 °F - -7.8 °F 71% 29.91 in 2.5 mi North - - N/A   Haze
10:54 AM -0.2 °F - -6.9 °F 73% 29.91 in 2.5 mi North - - N/A   Haze
11:13 AM -0.4 °F - -6.9 °F 74% 29.91 in 1.0 mi North - - N/A   Haze
11:33 AM -2.9 °F -23.1 °F -8.5 °F 77% 29.91 in 1.0 mi SW 15.0 mph 18.4 mph N/A   Haze
11:54 AM -1.5 °F - -6.7 °F 78% 29.90 in 1.2 mi North - - N/A   Haze
12:13 PM -0.4 °F - -7.1 °F 73% 29.90 in 1.0 mi North - - N/A   Haze
12:33 PM -0.4 °F - -7.2 °F 73% 29.90 in 1.2 mi North - - N/A   Haze
12:54 PM -0.4 °F - -7.6 °F 72% 29.90 in 1.0 mi North - - N/A   Haze
1:13 PM 0.3 °F - -7.6 °F 69% 29.90 in 2.5 mi North - - N/A   Haze
1:33 PM -0.6 °F - -6.9 °F 75% 29.90 in 1.8 mi North - - N/A   Haze
1:54 PM -0.9 °F - -6.5 °F 77% 29.91 in 1.0 mi North - - N/A   Haze
2:13 PM -1.8 °F - -7.8 °F 76% 29.91 in 1.0 mi North - - N/A   Haze
2:33 PM -2.4 °F - -8.3 °F 76% 29.92 in 1.0 mi North - - N/A   Haze
2:54 PM -3.3 °F - -9.6 °F 74% 29.94 in 1.2 mi North - - N/A   Haze
3:13 PM -4.0 °F - -10.3 °F 74% 29.95 in 1.0 mi North - - N/A   Haze
3:33 PM -4.4 °F - -10.8 °F 74% 29.96 in 1.8 mi North - - N/A   Haze
3:54 PM -4.9 °F - -12.8 °F 69% 29.98 in 2.5 mi North - - N/A   Haze
4:13 PM -6.2 °F - -14.3 °F 68% 29.99 in 4.0 mi North - - N/A   Haze
4:33 PM -7.8 °F - -15.7 °F 68% 29.99 in 4.0 mi North - - N/A   Haze
4:54 PM -9.0 °F - -17.1 °F 68% 30.00 in 2.5 mi North - - N/A   Haze
5:13 PM -10.3 °F - -18.4 °F 67% 30.01 in 5.0 mi North - - N/A   Haze
5:34 PM -11.4 °F - -19.1 °F 69% 30.02 in 7.0 mi North - - N/A   Clear
5:54 PM -12.1 °F -34.1 °F -19.7 °F 69% 30.03 in 7.0 mi SW 13.8 mph - N/A   Mostly Cloudy
6:13 PM -13.7 °F - -20.7 °F 71% 30.04 in 7.0 mi North - - N/A   Overcast
6:34 PM -14.3 °F - -21.1 °F 71% 30.05 in 5.0 mi North - - N/A   Haze
6:54 PM -14.8 °F - -21.5 °F 72% 30.06 in 4.0 mi North - - N/A   Haze
7:13 PM -15.0 °F - -21.5 °F 73% 30.06 in 3.0 mi North - - N/A   Haze
7:34 PM -15.3 °F -39.0 °F -22.0 °F 72% 30.07 in 3.0 mi SW 15.0 mph - N/A   Haze
7:54 PM -15.7 °F -39.5 °F -22.2 °F 73% 30.07 in 3.0 mi SW 15.0 mph - N/A   Haze
8:13 PM -15.9 °F -40.5 °F -22.5 °F 72% 30.07 in 4.0 mi SW 16.1 mph - N/A   Haze
8:34 PM -16.1 °F -39.9 °F -22.9 °F 71% 30.07 in 4.0 mi SW 15.0 mph 21.9 mph N/A   Haze
8:54 PM -16.1 °F -39.9 °F -22.9 °F 71% 30.07 in 4.0 mi SW 15.0 mph 19.6 mph N/A   Haze
9:13 PM -15.9 °F -41.2 °F -22.2 °F 73% 30.07 in 3.0 mi SW 17.3 mph 25.3 mph N/A   Haze
9:34 PM -15.7 °F -36.8 °F -22.2 °F 73% 30.07 in 3.0 mi SW 11.5 mph 21.9 mph N/A   Haze
9:54 PM -15.7 °F -40.2 °F -22.0 °F 73% 30.07 in 3.0 mi SW 16.1 mph 20.7 mph N/A   Haze
10:13 PM -15.3 °F -36.3 °F -21.5 °F 74% 30.06 in 3.0 mi SW 11.5 mph 26.5 mph N/A   Haze
10:34 PM -15.3 °F -37.3 °F -21.5 °F 74% 30.06 in 3.0 mi SW 12.7 mph 18.4 mph N/A   Haze
10:53 PM -15.0 °F -38.5 °F -20.9 °F 75% 30.06 in 2.5 mi SW 15.0 mph 21.9 mph N/A Snow Light Snow
11:13 PM -14.8 °F -40.5 °F -20.7 °F 75% 30.06 in 2.5 mi SW 18.4 mph 21.9 mph N/A   Haze
11:34 PM -14.3 °F -38.4 °F -20.2 °F 75% 30.06 in 2.5 mi SW 16.1 mph 23.0 mph N/A   Haze
11:53 PM -14.4 °F -38.6 °F -20.4 °F 75% 30.06 in 4.0 mi SW 16.1 mph 21.9 mph N/A   Haze